When you browse on this site, cookies collect data to enhance your experience and personalize the content and advertising you see.
Visit our Privacy Policy to learn more. By continuing to use the site, you agree to this use of cookies and data.
  • In Hungary
  • List of Countries
  • For 7 days
  • Water Temperature
  • Weather Map
  • News
  • Weather Widgets
  • user-avatar
    Login

    Hourly Weather Bad Soden am Taunus

    Today, 15 December, Sunday

    Time Temperature Precipitation Wind Pressure Humidity
    00:00 +4°C° 0 mm 3 mps 736 mmHg 83%
    01:00 +5°C° 0 mm 2 mps 735 mmHg 86%
    02:00 +5°C° 0.4 mm 3 mps 735 mmHg 89%
    03:00 +7°C° 0.4 mm 3 mps 734 mmHg 91%
    04:00 +6°C° 0.4 mm 4 mps 733 mmHg 94%
    05:00 +7°C° 0.9 mm 4 mps 733 mmHg 92%
    06:00 +8°C° 0.9 mm 5 mps 733 mmHg 89%
    07:00 +9°C° 0.9 mm 6 mps 732 mmHg 87%
    08:00 +9°C° 0.5 mm 6 mps 733 mmHg 86%
    09:00 +9°C° 0.5 mm 6 mps 734 mmHg 85%
    10:00 +8°C° 0.5 mm 6 mps 735 mmHg 84%
    11:00 +9°C° 0.2 mm 5 mps 736 mmHg 78%
    12:00 +9°C° 0.2 mm 5 mps 737 mmHg 72%
    13:00 +9°C° 0.2 mm 5 mps 737 mmHg 66%
    14:00 +8°C° 0 mm 4 mps 738 mmHg 67%
    15:00 +8°C° 0 mm 4 mps 739 mmHg 69%
    16:00 +8°C° 0 mm 3 mps 739 mmHg 70%
    17:00 +8°C° 0 mm 3 mps 739 mmHg 72%
    18:00 +7°C° 0 mm 3 mps 740 mmHg 74%
    19:00 +7°C° 0 mm 2 mps 740 mmHg 76%
    20:00 +7°C° 0 mm 2 mps 741 mmHg 77%
    21:00 +7°C° 0 mm 2 mps 741 mmHg 78%
    22:00 +7°C° 0 mm 2 mps 741 mmHg 79%
    23:00 +7°C° 0.2 mm 2 mps 741 mmHg 83%

    Tomorrow, 16 December, Monday

    Time Temperature Precipitation Wind Pressure Humidity
    00:00 +7°C° 0.2 mm 2 mps 741 mmHg 86%
    01:00 +6°C° 0.2 mm 2 mps 741 mmHg 90%
    02:00 +7°C° 0 mm 2 mps 741 mmHg 90%
    03:00 +7°C° 0 mm 2 mps 741 mmHg 91%
    04:00 +7°C° 0 mm 2 mps 741 mmHg 92%
    05:00 +7°C° 0.5 mm 2 mps 741 mmHg 93%
    06:00 +7°C° 0.5 mm 2 mps 741 mmHg 94%
    07:00 +7°C° 0.5 mm 2 mps 741 mmHg 95%
    08:00 +7°C° 0.2 mm 2 mps 741 mmHg 94%
    09:00 +8°C° 0.2 mm 2 mps 741 mmHg 93%
    10:00 +8°C° 0.2 mm 2 mps 741 mmHg 92%
    11:00 +9°C° 0 mm 2 mps 740 mmHg 87%
    12:00 +9°C° 0 mm 2 mps 740 mmHg 82%
    13:00 +10°C° 0 mm 3 mps 740 mmHg 77%
    14:00 +10°C° 0 mm 2 mps 740 mmHg 78%
    15:00 +9°C° 0 mm 2 mps 739 mmHg 78%
    16:00 +9°C° 0 mm 2 mps 739 mmHg 79%
    17:00 +10°C° 0 mm 1 mps 739 mmHg 79%
    18:00 +10°C° 0 mm 1 mps 739 mmHg 79%
    19:00 +9°C° 0 mm 1 mps 739 mmHg 78%
    20:00 +9°C° 0 mm 1 mps 739 mmHg 79%
    21:00 +8°C° 0 mm 1 mps 739 mmHg 79%
    22:00 +8°C° 0 mm 1 mps 739 mmHg 80%
    23:00 +8°C° 0 mm 1 mps 739 mmHg 79%

    Day after tomorrow, 17 December, Tuesday

    Time Temperature Precipitation Wind Pressure Humidity
    00:00 +8°C° 0 mm 1 mps 739 mmHg 79%
    01:00 +8°C° 0 mm 1 mps 739 mmHg 78%
    02:00 +8°C° 0 mm 1 mps 739 mmHg 77%
    03:00 +8°C° 0 mm 1 mps 738 mmHg 77%
    04:00 +8°C° 0 mm 1 mps 738 mmHg 76%
    05:00 +8°C° 0 mm 1 mps 738 mmHg 77%
    06:00 +8°C° 0 mm 1 mps 739 mmHg 78%
    07:00 +8°C° 0 mm 1 mps 739 mmHg 78%
    08:00 +8°C° 0 mm 1 mps 739 mmHg 78%
    09:00 +8°C° 0 mm 1 mps 739 mmHg 78%
    10:00 +8°C° 0 mm 1 mps 740 mmHg 78%
    11:00 +8°C° 0 mm 1 mps 740 mmHg 76%
    12:00 +9°C° 0 mm 1 mps 740 mmHg 74%
    13:00 +10°C° 0 mm 1 mps 740 mmHg 72%
    14:00 +9°C° 0 mm 1 mps 740 mmHg 74%
    15:00 +9°C° 0 mm 1 mps 740 mmHg 76%
    16:00 +9°C° 0 mm 1 mps 740 mmHg 78%
    17:00 +8°C° 0 mm 1 mps 740 mmHg 79%
    18:00 +8°C° 0 mm 1 mps 741 mmHg 81%
    19:00 +8°C° 0 mm 1 mps 741 mmHg 82%
    20:00 +8°C° 0 mm 1 mps 741 mmHg 82%
    21:00 +8°C° 0 mm 1 mps 741 mmHg 83%
    22:00 +8°C° 0 mm 1 mps 742 mmHg 83%
    23:00 +7°C° 0 mm 1 mps 742 mmHg 83%

    18 December, Wednesday

    Time Temperature Precipitation Wind Pressure Humidity
    00:00 +7°C° 0 mm 1 mps 742 mmHg 84%
    01:00 +7°C° 0 mm 1 mps 742 mmHg 84%
    02:00 +7°C° 0 mm 1 mps 742 mmHg 85%
    03:00 +7°C° 0 mm 1 mps 742 mmHg 87%
    04:00 +7°C° 0 mm 1 mps 742 mmHg 88%
    05:00 +7°C° 0 mm 1 mps 742 mmHg 88%
    06:00 +6°C° 0 mm 1 mps 743 mmHg 89%
    07:00 +6°C° 0 mm 1 mps 743 mmHg 89%
    08:00 +7°C° 0 mm 1 mps 743 mmHg 88%
    09:00 +7°C° 0 mm 1 mps 744 mmHg 86%
    10:00 +8°C° 0 mm 1 mps 744 mmHg 85%
    11:00 +8°C° 0 mm 1 mps 744 mmHg 83%
    12:00 +9°C° 0 mm 1 mps 744 mmHg 81%
    13:00 +10°C° 0 mm 1 mps 744 mmHg 78%
    14:00 +9°C° 0 mm 1 mps 744 mmHg 81%
    15:00 +9°C° 0 mm 1 mps 743 mmHg 83%
    16:00 +8°C° 0 mm 1 mps 743 mmHg 85%
    17:00 +8°C° 0 mm 1 mps 743 mmHg 86%
    18:00 +8°C° 0 mm 1 mps 743 mmHg 87%
    19:00 +7°C° 0 mm 1 mps 743 mmHg 89%
    20:00 +7°C° 0 mm 1 mps 743 mmHg 89%
    21:00 +7°C° 0 mm 1 mps 743 mmHg 89%
    22:00 +7°C° 0 mm 1 mps 743 mmHg 89%
    23:00 +7°C° 0 mm 1 mps 742 mmHg 90%

    19 December, Thursday

    Time Temperature Precipitation Wind Pressure Humidity
    00:00 +7°C° 0 mm 1 mps 742 mmHg 90%
    01:00 +7°C° 0 mm 1 mps 742 mmHg 90%
    02:00 +6°C° 0 mm 1 mps 742 mmHg 90%
    03:00 +6°C° 0 mm 1 mps 741 mmHg 91%
    04:00 +6°C° 0 mm 1 mps 741 mmHg 92%
    05:00 +5°C° 0 mm 0 mps 741 mmHg 92%
    06:00 +4°C° 0 mm 0 mps 741 mmHg 92%
    07:00 +4°C° 0 mm 0 mps 741 mmHg 93%
    08:00 +6°C° 0 mm 1 mps 741 mmHg 91%
    09:00 +6°C° 0 mm 1 mps 741 mmHg 90%
    10:00 +6°C° 0 mm 1 mps 741 mmHg 89%
    11:00 +7°C° 0 mm 1 mps 741 mmHg 85%
    12:00 +8°C° 0 mm 1 mps 740 mmHg 81%
    13:00 +8°C° 0 mm 0 mps 740 mmHg 77%
    14:00 +8°C° 0 mm 1 mps 739 mmHg 79%
    15:00 +8°C° 0 mm 1 mps 739 mmHg 82%
    16:00 +7°C° 0 mm 1 mps 739 mmHg 84%
    17:00 +7°C° 0 mm 1 mps 739 mmHg 86%
    18:00 +6°C° 0 mm 1 mps 738 mmHg 88%
    19:00 +6°C° 0 mm 1 mps 738 mmHg 90%
    20:00 +6°C° 0 mm 1 mps 738 mmHg 91%
    21:00 +5°C° 0 mm 1 mps 737 mmHg 92%
    22:00 +5°C° 0 mm 1 mps 737 mmHg 93%
    23:00 +5°C° 0 mm 1 mps 737 mmHg 93%

    20 December, Friday

    Time Temperature Precipitation Wind Pressure Humidity
    00:00 +5°C° 0 mm 1 mps 736 mmHg 93%
    01:00 +5°C° 0 mm 1 mps 736 mmHg 94%
    02:00 +5°C° 0 mm 1 mps 735 mmHg 94%
    03:00 +4°C° 0 mm 1 mps 735 mmHg 94%
    04:00 +4°C° 0 mm 1 mps 734 mmHg 94%
    05:00 +3°C° 0 mm 2 mps 734 mmHg 94%
    06:00 +3°C° 0 mm 2 mps 733 mmHg 94%
    07:00 +3°C° 0 mm 2 mps 733 mmHg 94%
    08:00 +4°C° 0 mm 2 mps 733 mmHg 93%
    09:00 +4°C° 0 mm 2 mps 732 mmHg 93%
    10:00 +4°C° 0 mm 2 mps 732 mmHg 92%
    11:00 +5°C° 0 mm 2 mps 731 mmHg 90%
    12:00 +6°C° 0 mm 2 mps 731 mmHg 87%
    13:00 +5°C° 0 mm 3 mps 730 mmHg 85%
    14:00 +6°C° 0 mm 2 mps 730 mmHg 86%
    15:00 +6°C° 0 mm 2 mps 729 mmHg 87%
    16:00 +7°C° 0 mm 1 mps 728 mmHg 87%
    17:00 +6°C° 0 mm 1 mps 728 mmHg 89%
    18:00 +5°C° 0 mm 2 mps 728 mmHg 90%
    19:00 +5°C° 0 mm 2 mps 727 mmHg 91%
    20:00 +6°C° 0 mm 1 mps 727 mmHg 92%
    21:00 +6°C° 0 mm 1 mps 727 mmHg 92%
    22:00 +6°C° 0 mm 1 mps 727 mmHg 92%
    23:00 +6°C° 0 mm 1 mps 727 mmHg 93%
    Show more